This demonstration page uses our WeatherBlox Daily Observations layout. Learn more.

Left ArrowRight Arrow

39.92423, -83.80882

Hourly Observations for November 27, 2021

Temp ( °F °C ) Dew Point ( °F °C ) Humidity (%) Winds ( mph kmh ) Pressure ( in mb ) Visibility ( mi km ) Precip ( " mm )
12:56 am 00:56 Cloudy 26 -3.3 25 -3.9 96 96 N N/A 30.13 1020 10 16 N/A
1:56 am 01:56 Clear 24 -4.4 24 -4.4 100 100 N N/A 30.14 1021 10 16 N/A
2:56 am 02:56 Clear 23 -5 23 -5 100 100 S 3 6 30.14 1021 10 16 N/A
3:56 am 03:56 Partly Cloudy 24 -4.4 24 -4.4 100 100 S 5 7 30.11 1020 10 16 N/A
4:56 am 04:56 Mostly Cloudy 25 -3.9 24 -4.4 96 96 SSE 3 6 30.10 1019 10 16 N/A
5:56 am 05:56 Mostly Cloudy 26 -3.3 25 -3.9 96 96 SE 5 7 30.10 1019 10 16 N/A
6:56 am 06:56 Cloudy 27 -2.8 25 -3.9 92 92 SSE 5 7 30.10 1019 10 16 N/A
7:56 am 07:56 Cloudy 28 -2.2 25 -3.9 88 88 SSE 7 11 30.08 1019 10 16 N/A
8:56 am 08:56 Cloudy 30 -1.1 25 -3.9 82 82 SSE 7 11 30.08 1019 10 16 N/A
9:56 am 09:56 Mostly Cloudy 33 0.6 25 -3.9 72 72 SSE 10 17 30.05 1018 10 16 N/A
10:56 am 10:56 Cloudy 34 1.1 24 -4.4 67 67 S 10 17 30.03 1017 10 16 N/A
11:56 am 11:56 Cloudy 37 2.8 25 -3.9 62 62 S 13 20 30.00 1016 10 16 N/A
12:56 pm 12:56 Cloudy 38 3.3 24 -4.4 57 57 S 10 17 29.98 1015 10 16 N/A
1:56 pm 13:56 Cloudy 39 3.9 25 -3.9 57 57 SSE 12 19 29.93 1014 10 16 N/A
2:56 pm 14:56 Cloudy 40 4.4 27 -2.8 60 60 SSE 8 13 29.92 1013 10 16 N/A
3:56 pm 15:56 Cloudy 40 4.4 29 -1.7 65 65 SSE 5 7 29.92 1013 10 16 N/A
4:56 pm 16:56 Cloudy 41 5 28 -2.2 60 60 SSE 6 9 29.88 1012 10 16 N/A
5:56 pm 17:56 Cloudy 41 5 28 -2.2 60 60 S 6 9 29.88 1012 10 16 N/A
6:56 pm 18:56 Cloudy 40 4.4 29 -1.7 65 65 S 6 9 29.88 1012 10 16 N/A
7:56 pm 19:56 Cloudy 40 4.4 30 -1.1 68 68 S 7 11 29.86 1011 10 16 N/A
8:56 pm 20:56 Cloudy 41 5 30 -1.1 65 65 SW 12 19 29.84 1011 10 16 N/A
9:56 pm 21:56 Cloudy 41 5 32 undefined 70 70 WSW 10 17 29.85 1011 10 16 N/A
10:56 pm 22:56 Partly Cloudy 41 5 32 undefined 70 70 WSW 14 22 29.83 1010 10 16 N/A
11:56 pm 23:56 Clear 40 4.4 32 undefined 73 73 WSW 16 26 29.83 1010 10 16 N/A

Powered by AerisWeather